Orbital elements of FENGYUN 1C DEB
| Launched | 9 May 1999 |
| Flight ended | – |
| Launch site | Taiyuan Space Center, PRC |
| Owner | People's Republic of China |
| NORAD ID | 31887 |
| Date fetched |
Epoch osculation |
Inc. [°] |
Ecc. | RA asc node [hr] |
Arg Peri. [°] |
Mean anom [°] |
Mean motion [rev/day] |
Abs. mag |
| Date fetched |
Epoch osculation |
Inc. [°] |
Ecc. | RA asc node [hr] |
Arg Peri. [°] |
Mean anom [°] |
Mean motion [rev/day] |
Abs. mag |
| 2026 May 08 17:57 | 2026 May 04 16:31:54 | 99.5222 | 0.00209 | 13.4751 | 298.8817 | 61.0280 | 14.59924 | – |
| 2026 May 07 17:58 | 2026 May 04 16:31:54 | 99.5222 | 0.00209 | 13.4751 | 298.8817 | 61.0280 | 14.59924 | – |
| 2026 May 06 17:57 | 2026 May 04 16:31:54 | 99.5222 | 0.00209 | 13.4751 | 298.8817 | 61.0280 | 14.59924 | – |
| 2026 May 05 17:57 | 2026 May 04 16:31:54 | 99.5222 | 0.00209 | 13.4751 | 298.8817 | 61.0280 | 14.59924 | – |
| 2026 May 04 17:57 | 2026 Apr 29 23:02:04 | 99.5231 | 0.00209 | 13.1134 | 313.9717 | 61.0280 | 14.59924 | – |
| 2026 May 03 17:57 | 2026 Apr 29 23:02:04 | 99.5231 | 0.00209 | 13.1134 | 313.9717 | 61.0280 | 14.59924 | – |
| 2026 May 02 17:57 | 2026 Apr 29 23:02:04 | 99.5231 | 0.00209 | 13.1134 | 313.9717 | 61.0280 | 14.59924 | – |
| 2026 May 01 17:56 | 2026 Apr 29 23:02:04 | 99.5231 | 0.00209 | 13.1134 | 313.9717 | 61.0280 | 14.59924 | – |
| 2026 Apr 30 17:56 | 2026 Apr 29 23:02:04 | 99.5231 | 0.00209 | 13.1134 | 313.9717 | 61.0280 | 14.59924 | – |
| 2026 Apr 29 17:57 | 2026 Apr 23 04:10:59 | 99.5218 | 0.00209 | 12.5945 | 335.7238 | 61.0280 | 14.59924 | – |
| 2026 Apr 28 17:56 | 2026 Apr 23 04:10:59 | 99.5218 | 0.00209 | 12.5945 | 335.7238 | 61.0280 | 14.59924 | – |
| 2026 Apr 27 17:58 | 2026 Apr 23 04:10:59 | 99.5218 | 0.00209 | 12.5945 | 335.7238 | 61.0280 | 14.59924 | – |
| 2026 Apr 26 17:58 | 2026 Apr 23 04:10:59 | 99.5218 | 0.00209 | 12.5945 | 335.7238 | 61.0280 | 14.59924 | – |
| 2026 Apr 25 17:58 | 2026 Apr 23 04:10:59 | 99.5218 | 0.00209 | 12.5945 | 335.7238 | 61.0280 | 14.59924 | – |
| 2026 Apr 24 17:59 | 2026 Apr 23 04:10:59 | 99.5218 | 0.00209 | 12.5945 | 335.7238 | 61.0280 | 14.59924 | – |
| 2026 Apr 23 17:57 | 2026 Apr 17 11:38:42 | 99.5227 | 0.00212 | 12.1594 | 354.1259 | 61.0280 | 14.59924 | – |
| 2026 Apr 22 17:57 | 2026 Apr 17 11:38:42 | 99.5227 | 0.00212 | 12.1594 | 354.1259 | 61.0280 | 14.59924 | – |
| 2026 Apr 21 17:57 | 2026 Apr 17 11:38:42 | 99.5227 | 0.00212 | 12.1594 | 354.1259 | 61.0280 | 14.59924 | – |
| 2026 Apr 20 17:57 | 2026 Apr 17 11:38:42 | 99.5227 | 0.00212 | 12.1594 | 354.1259 | 61.0280 | 14.59924 | – |
| 2026 Apr 19 17:58 | 2026 Apr 17 11:38:42 | 99.5227 | 0.00212 | 12.1594 | 354.1259 | 61.0280 | 14.59924 | – |
| 2026 Apr 18 17:56 | 2026 Apr 13 04:00:16 | 99.5225 | 0.00214 | 11.8292 | 7.8049 | 61.0280 | 14.59924 | – |
| 2026 Apr 16 17:57 | 2026 Apr 13 04:00:16 | 99.5225 | 0.00214 | 11.8292 | 7.8049 | 61.0280 | 14.59924 | – |
| 2026 Apr 14 17:57 | 2026 Apr 13 04:00:16 | 99.5225 | 0.00214 | 11.8292 | 7.8049 | 61.0280 | 14.59924 | – |
| 2026 Apr 13 17:57 | 2026 Apr 13 04:00:16 | 99.5225 | 0.00214 | 11.8292 | 7.8049 | 61.0280 | 14.59924 | – |
| 2026 Apr 12 17:57 | 2026 Apr 08 03:54:35 | 99.5226 | 0.00219 | 11.4466 | 23.8365 | 61.0280 | 14.59924 | – |
| 2026 Apr 11 17:57 | 2026 Apr 08 03:54:35 | 99.5226 | 0.00219 | 11.4466 | 23.8365 | 61.0280 | 14.59924 | – |